Weather Roundup
Issued by NWS

Home | Current Version | Previous Version | Text Only | Print | Product List | Glossary On
Versions: 1 2 3 4 5 6 7 8 9 10 11 12 13 14 15 16 17 18 19 20 21 22 23 24 25 26 27 28 29 30 31 32 33 34 35 36 37 38 39 40 41 42 43 44 45 46 47 48 49 50
000
NZUS93 KARX 270110
HRRWXR

CURRENT HOURLY OBSERVATIONS ACROSS
MUCH OF THE UPPER MISSISSIPPI VALLEY
NATIONAL WEATHER SERVICE LA CROSSE WI
800 PM CDT FRI MAY 26 2017


...SOUTHEAST MINNESOTA...


CITY           SKY/WX    TMP DP  RH WIND       PRES   REMARKS
ROCHESTER      CLOUDY    69  58  67 S15       29.79R
ROCHESTER/MAYO FAIR      71  56  59 S12       29.78S
WINONA         CLOUDY    70  55  60 CALM      29.79R
AUSTIN         PTCLDY    70  57  64 SE8       29.78R
ALBERT LEA     PTCLDY    75  57  53 CALM      29.77R
DODGE CENTER   CLEAR     72  55  56 S13       29.78R
PRESTON        PTCLDY    67  56  67 S9        29.81R
OWATONNA       CLEAR     75  48  38 W13       29.77R
FARIBAULT      CLEAR     73  50  43 W8        29.77R
$$

...ELSEWHERE IN MINNESOTA...


CITY           SKY/WX    TMP DP  RH WIND       PRES   REMARKS
MINNEAPOLIS    PTCLDY    75  48  38 W13       29.74R
INTNL FALLS    MOCLDY    69  43  38 W7        29.68R
DULUTH         PTCLDY    59  51  75 E9        29.72R
RED WING       CLEAR     73  54  49 S9        29.74R
REDWOOD FALLS  CLEAR     70  44  39 W8        29.78R
MANKATO        CLEAR     73  47  39 W9        29.78R
WORTHINGTON    CLEAR     68  44  42 W9        29.83R
FAIRMONT       CLEAR     72  45  37 NW12      29.80R
$$

...SOUTHWEST WISCONSIN...


CITY           SKY/WX    TMP DP  RH WIND       PRES   REMARKS
LA CROSSE      CLEAR     69  58  67 S10       29.79S
PRAIRIE DU CHI PTCLDY    66  56  70 CALM      29.82R
BOSCOBEL       CLEAR     68  57  68 CALM      29.82S
LONE ROCK      CLEAR     64  57  78 E7        29.83R
PLATTEVILLE    PTCLDY    64  58  81 CALM      29.84F
FORT MC COY    CLEAR     66  56  71 S6        29.81F
CAMP DOUGLAS   CLEAR     66  54  65 S3        29.82S
MAUSTON-NEW LI CLEAR     65  56  72 S3        29.82S
VIROQUA        FAIR      65  56  73 SW7       29.83S
WIS DELLS      CLOUDY    62  52  69 SE5       29.84S
$$

...ELSEWHERE IN WISCONSIN...


CITY           SKY/WX    TMP DP  RH WIND       PRES   REMARKS
MILWAUKEE      CLOUDY    56  54  93 SE6       29.84F
MADISON        PTCLDY    62  54  74 E3        29.84R
GREEN BAY      CLOUDY    65  58  78 SE8       29.83S
EAU CLAIRE     CLEAR     71  55  56 S9        29.76R
BLACK RVR FLS  FAIR      69  54  57 S5        29.79S
MEDFORD        CLEAR     65  55  69 S8        29.80S
WAUSAU         PTCLDY    65  52  62 S5        29.80R
WIS RAPIDS     CLEAR     66  52  60 S7        29.83S
MARSHFIELD     CLEAR     66  53  63 S8        29.80S
RICE LAKE      PTCLDY    71  56  58 S8        29.76S
$$

...NORTHEAST IOWA...


CITY           SKY/WX    TMP DP  RH WIND       PRES   REMARKS
WATERLOO       PTCLDY    66  58  75 SE10      29.80R
DUBUQUE        MOCLDY    63  59  87 E5        29.83F
DECORAH        PTCLDY    66  57  72 S5        29.81R
MASON CITY     PTCLDY    73  58  59 SE9       29.79R
CHARLES CITY   CLOUDY    68  61  77 SE8       29.81R
OELWEIN        PTCLDY    66  59  77 SE7       29.82S
$$

...ELSEWHERE IN IOWA...


CITY           SKY/WX    TMP DP  RH WIND       PRES   REMARKS
DES MOINES     PTCLDY    80  58  46 CALM      29.78R
IOWA CITY      PTCLDY    68  60  75 N6        29.83R
FORT DODGE     CLEAR     75  48  38 W3        29.80R
MARSHALLTOWN   PTCLDY    68  61  78 E12       29.79R
CEDAR RAPIDS   PTCLDY    65  61  87 E3        29.81S
$$

...NORTHERN ILLINOIS...


CITY           SKY/WX    TMP DP  RH WIND       PRES   REMARKS
CHICAGO-OHARE  LGT RAIN  56  53  90 NE8       29.83R
CHICAGO-MIDWAY DRIZZLE   59  56  89 NE14      29.81S
MOLINE         CLOUDY    66  60  81 VRB3      29.80R
ROCKFORD       CLOUDY    60  56  86 E7        29.83R
PEORIA         CLEAR     71  66  84 NW3       29.78R
$$

NOTE: "FAIR" INDICATES FEW OR NO CLOUDS BELOW 12,000 FEET WITH NO
SIGNIFICANT WEATHER AND/OR OBSTRUCTIONS TO VISIBILITY. WIND
SPEEDS ARE IN MILES-PER-HOUR.




USA.gov is the U.S. government's official web portal to all federal, state and local government web resources and services.